Location: Kvarnån
(66.4000°N, 22.2667°E)
Time: 21:45:48
(UTC+00:00)

Cosmos 2082 Rocket - Pass Details

Date: 15 October 2024
Orbit: 831 x 854 km, 71.0° (Epoch: 05 November)

Event Time Altitude Azimuth Distance (km) Brightness Sun altitude
Rises 18:54:27 0° 221° (SW) 3,384 5.4 -23.2°
Reaches altitude 10° 18:56:52 10° 219° (SW) 2,455 4.7 -23.4°
Maximum altitude 19:02:29 74° 136° (SE) 882 2.0 -23.8°
Enters shadow 19:07:02 16° 54° (NE) 2,058 4.0 -24.2°
Exits shadow 19:10:15 - 52° (NE) 3,279 5.1 -24.5°
Sets 19:10:38 0° 52° (NE) 3,422 5.2 -24.5°
